Flag Weather past 2 weeks in Sheboygan, Wisconsin, U.S.A.

Now
4 °F

Clear.


Feels Like: -3 °F
Forecast: 12 / 28 °F
Wind: 3 mph from West

Location: Sheboygan County Memorial Airport

Current Time: Nov 27, 2014 at 10:37:54 PM

Latest Report: Nov 27, 2014 at 9:53 PM


Visibility: 10 mi

Pressure: 30.41 "Hg

Humidity: 80%

Dew point: -1 °F

Location of SheboyganLocation

Historic Weather in Sheboygan — Graph

°F

Sheboygan temperature yesterday

Maximum temperature yesterday: 26 °F (at 1:53 PM)
Minimum temperature yesterday: 18 °F (at 6:03 AM)
Average temperature yesterday: 21 °F

Past Weeks' High & Low Weather Summary

 TemperatureHumidityPressure
High48 °F (Nov 23, 10:53 AM)97% (Nov 22, 6:53 PM)30.45 "Hg (Nov 22, 6:53 PM)
Low5 °F (Nov 21, 5:53 AM)33% (Nov 21, 2:53 PM)29.02 "Hg (Nov 24, 4:53 AM)
Average24 °F75%30.00 "Hg
* Reported Nov 12 8:53 PM — Nov 27 8:53 PM, Sheboygan, Weather by CustomWeather, © 2014

Note: Actual official high and low records may vary slightly from our data, if they occured in-between our weather recording intervals... More about our weather records

Advertising

Sheboygan weather history for previous 24 hours

 ConditionsComfort  
Time TempWeatherWind HumidityBarometerVisibility
8:53 PM
Nov 27
8 °FClear.7 mph79%30.42 "Hg10 mi
7:53 PM8 °FClear.6 mph83%30.42 "Hg10 mi
6:53 PM9 °FClear.3 mph84%30.43 "Hg10 mi
5:53 PM8 °FClear.No wind79%30.43 "Hg10 mi
4:53 PM13 °FClear.3 mph70%30.41 "Hg10 mi
3:53 PM16 °FSunny.9 mph65%30.40 "Hg10 mi
2:53 PM18 °FSunny.9 mph59%30.39 "Hg10 mi
1:53 PM18 °FSunny.10 mph59%30.37 "Hg10 mi
12:53 PM18 °FSunny.13 mph57%30.38 "Hg10 mi
11:53 AM18 °FScattered clouds.10 mph65%30.37 "Hg10 mi
10:53 AM19 °FCloudy.15 mph65%30.38 "Hg10 mi
9:53 AM19 °FOvercast.13 mph71%30.37 "Hg10 mi
8:53 AM20 °FMore clouds than sun.13 mph74%30.35 "Hg9 mi
7:53 AM21 °FMostly cloudy.10 mph78%30.32 "Hg10 mi
6:53 AM22 °FMostly cloudy.9 mph85%30.29 "Hg10 mi
5:53 AM22 °FOvercast.10 mph85%30.27 "Hg10 mi
5:04 AM23 °FMostly cloudy.10 mph81%30.23 "Hg10 mi
4:53 AM23 °FOvercast.12 mph81%30.26 "Hg10 mi
3:53 AM23 °FOvercast.10 mph85%30.25 "Hg10 mi
2:53 AM22 °FLight snow. Ice fog.6 mph89%30.24 "Hg3 mi
1:53 AM22 °FLight snow. Ice fog.7 mph89%30.24 "Hg2 mi
12:53 AM21 °FLight snow. Ice fog.9 mph88%30.23 "Hg2 mi
11:53 PM
Nov 26
21 °FIce fog.8 mph85%30.23 "Hg5 mi
10:53 PM19 °FIce fog.7 mph88%30.22 "Hg5 mi
Weather by CustomWeather, © 2014

See weather overviewHow to use our weather pages